* Astronomy

Members Login
Username 
 
Password 
    Remember Me  
Post Info TOPIC: Proton-K Auxiliary Motor re-entry


L

Posts: 131433
Date:
Proton-K Auxiliary Motor re-entry
Permalink  
 


A Proton-K Auxiliary Motor that was launched on the 26th December 2004 from LC-200 at the Baikonur Cosmodrome on the Cosmos 2411/12/13 Mission, was predicted to re-enter the Earths atmosphere on the 07 July 2008 @ 23:36 GMT  ± 1 minute

TLE Data

SL-12 RB(AUX MOTOR)
1 28515U 04053H 08189.82229325 .99999999 16552-5 10073-2 0 8844
2 28515 063.7148 151.8216 0341611 202.7304 159.7715 15.83956715 56837
1 28515U 04053H 08189.88447169 .99999999 38860-5 12602-2 0 8855
2 28515 063.6994 151.5405 0244325 204.4462 155.2904 16.06638365 56846
1 28515U 04053H 08189.69482117 .86878927 -10723-5 11504-2 0 8836
2 28515 063.6777 152.3674 0477233 198.6858 164.5074 15.48006745 56815
1 28515U 04053H 08189.43159520 .70839086 -26859-5 12096-2 0 8826
2 28515 063.7779 153.1959 0668867 198.6028 159.5487 15.00976278 56779
1 28515U 04053H 08189.29756266 .62735734 -24449-5 11218-2 0 8813
2 28515 063.7561 153.6420 0750385 198.5124 160.1066 14.81506273 56750


Predicted Decay Location    39.5° S, 74.7° E
Inclination    63.7°
Revolution Number    5687


__________________
Page 1 of 1  sorted by
 
Quick Reply

Please log in to post quick replies.



Create your own FREE Forum
Report Abuse
Powered by ActiveBoard